{"data":{"norad_id":59484,"epoch":"2026-05-25T01:17:45.549024Z","epoch_age_seconds":66471,"freshness":"FRESH","line1":"1 59484U 24071A   26145.05399941 -.00000185  00000+0  27833-5 0  9994","line2":"2 59484  42.9956 268.5633 0001195  55.5397 304.5567 15.27573351119886","mean_motion":15.27573351,"eccentricity":0.0001195,"inclination_deg":42.9956,"raan_deg":268.5633,"arg_perigee_deg":55.5397,"mean_anomaly_deg":304.5567,"bstar":2.7833e-6,"rev_number":11988,"period_min":94.2671590243,"perigee_km":482.24909149216,"apogee_km":483.8889197275,"semimajor_km":6861.2060056098,"source":"CELESTRAK","updated_at":"2026-05-25T13:38:18.952452Z"}}